This is the latest recevied weather packets stored in our database for station/object DL3NDS-WX. If no packets are shown the sender has not sent any weather packets the latest 1 day(s).
| Time | Temp. | Humidity | Pressure | Rain* | Wind** | Luminosity | Snow |
|---|---|---|---|---|---|---|---|
| 1778026272 | 11.11° C | 92% | 1008.3 hPa | 0 mm | 1.79 m/s, 224° | 0 W/m² | - |
| 1778026153 | 11.11° C | 92% | 1008.3 hPa | 0 mm | 1.79 m/s, 247° | 0 W/m² | - |
| 1778026094 | 11.11° C | 92% | 1008.3 hPa | 0 mm | 1.34 m/s, 257° | 0 W/m² | - |
| 1778026031 | 11.11° C | 92% | 1008.3 hPa | 0 mm | 1.34 m/s, 211° | 0 W/m² | - |
| 1778025969 | 11.11° C | 92% | 1008.3 hPa | 0 mm | 0.89 m/s, 200° | 0 W/m² | - |
| 1778025909 | 11.11° C | 92% | 1008.3 hPa | 0 mm | 0.89 m/s, 216° | 0 W/m² | - |
| 1778025846 | 11.11° C | 92% | 1008.3 hPa | 0 mm | 0.89 m/s, 216° | 0 W/m² | - |
| 1778025786 | 11.11° C | 92% | 1008.3 hPa | 0 mm | 0.45 m/s, 188° | 0 W/m² | - |
| 1778025724 | 11.11° C | 92% | 1008.2 hPa | 0 mm | 0.45 m/s, 211° | 0 W/m² | - |
| 1778025664 | 11.11° C | 92% | 1008.2 hPa | 0 mm | 0.45 m/s, 225° | 0 W/m² | - |
| 1778025606 | 11.11° C | 92% | 1008.3 hPa | 0 mm | 0.45 m/s, 225° | 0 W/m² | - |
| 1778025539 | 11.11° C | 92% | 1008.3 hPa | 0 mm | 0.45 m/s, 225° | 0 W/m² | - |
| 1778025478 | 11.11° C | 92% | 1008.3 hPa | 0 mm | 0.45 m/s, 225° | 0 W/m² | - |
| 1778025417 | 11.11° C | 92% | 1008.3 hPa | 0 mm | 0.89 m/s, 225° | 0 W/m² | - |
| 1778025355 | 11.11° C | 92% | 1008.4 hPa | 0 mm | 0.45 m/s, 231° | 0 W/m² | - |
| 1778025301 | 11.11° C | 92% | 1008.3 hPa | 0 mm | 0.45 m/s, 229° | 0 W/m² | - |
| 1778025230 | 11.11° C | 92% | 1008.4 hPa | 0 mm | 0.89 m/s, 229° | 0 W/m² | - |
| 1778025165 | 11.11° C | 92% | 1008.3 hPa | 0 mm | 0.45 m/s, 229° | 0 W/m² | - |
| 1778025106 | 11.11° C | 92% | 1008.3 hPa | 0 mm | 0.45 m/s, 228° | 0 W/m² | - |
| 1778025045 | 11.11° C | 92% | 1008.3 hPa | 0 mm | 0.89 m/s, 222° | 0 W/m² | - |
| 1778024979 | 11.11° C | 92% | 1008.4 hPa | 0 mm | 0.45 m/s, 221° | 0 W/m² | - |
| 1778024917 | 11.11° C | 92% | 1008.4 hPa | 0 mm | 0.89 m/s, 222° | 0 W/m² | - |
| 1778024856 | 11.11° C | 92% | 1008.3 hPa | 0 mm | 1.34 m/s, 241° | 0 W/m² | - |
| 1778024795 | 11.11° C | 92% | 1008.4 hPa | 0 mm | 1.79 m/s, 242° | 0 W/m² | - |
| 1778024734 | 11.11° C | 92% | 1008.4 hPa | 0 mm | 1.79 m/s, 241° | 0 W/m² | - |
* Rain latest hour (hover to see other rain measurements)
** Current wind speed in m/s (hover to see current wind gust speed)